METEOSAT-8 (MSG-1)

Last updated on Jan. 23, 2021, 7:08 a.m. UTC

1 27509U 02040B   21022.64180156  .00000144  00000-0  00000-0 0  9996
2 27509   7.1116  53.1603 0000489 301.9303  39.6618  1.00266330 67488
UTC
Height (km)
Latitude
Longitude
Inclination
Orbital Period
UTC large
Height (km)
Speed (km/s)
/
Latitude / Longitude
Inclination (degrees)
Orbital Period (minutes)
Azimuth
Elevation
Range (km)
Doppler Factor
iOS Compass Heading
iOS Angle

Next 30 passes for location: Hong Kong

Rise time Rise Azimuth (degrees) Set time Set Azimuth (degrees) Duration Max altitude (degrees)

No matching passes for this satellites